Location: Braunsdorf
(50.7357°N, 11.9136°E)
Time: 10:02:22
(UTC+00:00)

STARLINK-1131 - Pass Details

Date: 17 February 2020
Orbit: 553 x 556 km, 53.0° (Epoch: 09 April)

Event Time Altitude Azimuth Distance (km) Brightness Sun altitude
Exits shadow 03:29:36 42° 64° (ENE) 802 4.8 -27.7°
Drops below altitude 10° 03:32:27 10° 72° (ENE) 1,841 7.3 -27.3°
Enters shadow 04:29:45 -68° 266° (W) 12,440 10.4 -18.3°
Maximum altitude 05:08:12 65° 6° (N) 615 3.8 -12.3°
